MTSAT-2 (MSAS/PRN 137)

Last updated on Dec. 5, 2020, 6:14 a.m. UTC

1 28937U 06004A   20339.75060392 -.00000160  00000-0  00000-0 0  9996
2 28937   0.6120  93.8542 0003699 120.9269 127.2699  0.99079103 54202
UTC
Height (km)
Latitude
Longitude
Inclination
Orbital Period
UTC large
Height (km)
Speed (km/s)
/
Latitude / Longitude
Inclination (degrees)
Orbital Period (minutes)
Azimuth
Elevation
Range (km)
Doppler Factor
iOS Compass Heading
iOS Angle

Next 30 passes for location: Hong Kong

Rise time Rise Azimuth (degrees) Set time Set Azimuth (degrees) Duration Max altitude (degrees)

No matching passes for this satellites